Weather History for Wilmington, NC

Change the Weather History Date:

Sunday, February 24, 2013

  Actual Average Record
Temperature  
Mean Temperature 54 °F 50 °F  
Max Temperature 65 °F 62 °F 81 °F (1982)
Min Temperature 43 °F 39 °F 18 °F (1901)
Degree Days  
Heating Degree Days 11 15  
Month to date heating degree days 425 397  
Since 1 July heating degree days 1749 1872  
Cooling Degree Days 0 0  
Month to date cooling degree days 0 0  
Year to date cooling degree days 12 2  
Growing Degree Days 5 (Base 50)    
Moisture  
Dew Point 45 °F    
Average Humidity 72    
Maximum Humidity 100    
Minimum Humidity 44    
Precipitation  
Precipitation 0.02 in 0.14 in 1.90 in (1994)
Month to date precipitation 3.50 3.10  
Year to date precipitation 5.63 6.86  
Snow  
Snow 0.00 in 0.00 in 1.30 in (1968)
Month to date snowfall T 0.3  
Since 1 July snowfall T 1.5  
Snow Depth 0.00 in    
Sea Level Pressure  
Sea Level Pressure 29.89 in    
Wind  
Wind Speed 6 mph (WNW)    
Max Wind Speed 15 mph    
Max Gust Speed 20 mph    
Visibility 8 miles    
Events Rain    
T = Trace of Precipitation, MM = Missing Value Source: NWS Daily Summary

Daily Weather History Graph

Daily Weather History Graph

Search for Another Location

Airport:

Trip Planner

Search our weather history database for the weather conditions in past years. The results will help you decide how hot, cold, wet, or windy it might be!

Date:

Astronomy

Feb. 24, 2013 Rise Set
Actual Time 6:46 AM EST 6:03 PM EST
Civil Twilight 6:21 AM EST 6:29 PM EST
Nautical Twilight 5:51 AM EST 6:58 PM EST
Astronomical Twilight 5:22 AM EST 7:27 PM EST
Moon 5:12 PM EST (2/24) 5:41 AM EST (2/24)
Length of Visible Light 12h 08m
Length of Day
11h 17m
Waxing Gibbous, 99% of the Moon is Illuminated
Feb 24
Waxing Gibbous
Feb 25
Full
Mar 4
Last Quarter
Mar 11
New
Mar 19
First Quarter

Hourly Weather History & Observations

Time (EST) Temp. Windchill Dew Point Humidity Pressure Visibility Wind Dir Wind Speed Gust Speed Precip Events Conditions
12:53 AM 48.0 °F - 46.9 °F 96% 29.81 in 9.0 mi NNW 3.5 mph - 0.02 in   Overcast
1:53 AM 48.0 °F - 46.0 °F 93% 29.79 in 4.0 mi NNW 8.1 mph - N/A   Overcast
2:25 AM 46.4 °F 40.7 °F 46.4 °F 100% 29.81 in 2.5 mi NNW 12.7 mph - N/A   Overcast
2:38 AM 46.4 °F 43.5 °F 46.4 °F 100% 29.80 in 4.0 mi NNW 5.8 mph - N/A   Overcast
2:53 AM 46.9 °F - 46.0 °F 97% 29.80 in 6.0 mi NW 4.6 mph - N/A   Overcast
3:53 AM 46.9 °F - 45.0 °F 93% 29.80 in 5.0 mi West 8.1 mph - N/A   Overcast
4:32 AM 46.4 °F 42.4 °F 46.4 °F 100% 29.81 in 2.0 mi West 8.1 mph - N/A   Overcast
4:53 AM 46.9 °F - 46.0 °F 97% 29.82 in 3.0 mi WNW 9.2 mph - N/A   Overcast
5:08 AM 46.4 °F 41.9 °F 46.4 °F 100% 29.82 in 2.0 mi West 9.2 mph - N/A   Overcast
5:30 AM 46.4 °F 42.4 °F 46.4 °F 100% 29.84 in 4.0 mi WNW 8.1 mph - N/A   Overcast
5:53 AM 46.9 °F - 45.0 °F 93% 29.85 in 7.0 mi WNW 13.8 mph - 0.00 in Rain Light Rain
6:03 AM 46.4 °F 41.9 °F 44.6 °F 93% 29.84 in 10.0 mi WNW 9.2 mph - N/A   Overcast
6:38 AM 46.4 °F 42.9 °F 44.6 °F 93% 29.85 in 8.0 mi NW 6.9 mph - N/A   Overcast
6:53 AM 46.9 °F - 45.0 °F 93% 29.85 in 7.0 mi NW 5.8 mph - N/A   Overcast
7:53 AM 48.0 °F - 46.0 °F 93% 29.89 in 9.0 mi NW 6.9 mph - N/A   Overcast
8:53 AM 48.0 °F - 46.0 °F 93% 29.92 in 2.0 mi WNW 9.2 mph - N/A   Overcast
9:51 AM 48.2 °F - 46.4 °F 93% 29.94 in 9.0 mi WNW 12.7 mph - N/A   Overcast
9:53 AM 48.9 °F - 46.9 °F 93% 29.94 in 9.0 mi NW 11.5 mph - N/A   Overcast
10:14 AM 50.0 °F - 46.4 °F 87% 29.94 in 10.0 mi WNW 11.5 mph - N/A   Overcast
10:53 AM 52.0 °F - 46.9 °F 83% 29.94 in 10.0 mi NW 11.5 mph - N/A   Overcast
11:06 AM 53.6 °F - 46.4 °F 77% 29.95 in 10.0 mi NW 11.5 mph - N/A   Overcast
11:43 AM 55.4 °F - 48.2 °F 77% 29.95 in 10.0 mi WNW 12.7 mph - N/A   Scattered Clouds
11:53 AM 57.0 °F - 48.0 °F 72% 29.94 in 10.0 mi NNW 11.5 mph - N/A   Scattered Clouds
12:53 PM 60.1 °F - 48.0 °F 64% 29.92 in 10.0 mi WNW 6.9 mph - N/A   Clear
1:53 PM 63.0 °F - 46.9 °F 56% 29.91 in 10.0 mi WNW 9.2 mph - N/A   Clear
2:53 PM 64.9 °F - 43.0 °F 45% 29.90 in 10.0 mi WNW 8.1 mph - N/A   Clear
3:53 PM 64.0 °F - 42.1 °F 45% 29.91 in 10.0 mi WNW 8.1 mph - N/A   Clear
4:53 PM 63.0 °F - 42.1 °F 46% 29.91 in 10.0 mi West 8.1 mph - N/A   Clear
5:53 PM 60.1 °F - 43.0 °F 53% 29.92 in 10.0 mi West 5.8 mph - N/A   Clear
6:53 PM 53.1 °F - 45.0 °F 74% 29.95 in 10.0 mi Calm Calm - N/A   Clear
7:53 PM 51.1 °F - 45.0 °F 80% 29.98 in 10.0 mi SW 3.5 mph - N/A   Clear
8:53 PM 48.0 °F - 44.1 °F 86% 29.98 in 10.0 mi Calm Calm - N/A   Clear
9:53 PM 46.0 °F - 43.0 °F 89% 29.99 in 10.0 mi Calm Calm - N/A   Clear
10:53 PM 46.0 °F - 42.1 °F 86% 30.01 in 10.0 mi Calm Calm - N/A   Clear
11:53 PM 43.0 °F - 41.0 °F 93% 30.01 in 8.0 mi Calm Calm - N/A   Clear